Year,Month,Day,Hour,Minute,Value (Times are PST for temperature in C)
2019,03,31,00,00,8.80
2019,03,31,00,01,8.80
2019,03,31,00,02,8.80
2019,03,31,00,03,8.80
2019,03,31,00,04,8.70
2019,03,31,00,05,8.70
2019,03,31,00,06,8.60
2019,03,31,00,07,8.50
2019,03,31,00,08,8.50
2019,03,31,00,09,8.40
2019,03,31,00,10,8.40
2019,03,31,00,11,8.40
2019,03,31,00,12,8.40
2019,03,31,00,13,8.40
2019,03,31,00,14,8.40
2019,03,31,00,15,8.30
2019,03,31,00,16,8.30
2019,03,31,00,17,8.30
2019,03,31,00,18,8.30
2019,03,31,00,19,8.30
2019,03,31,00,20,8.20
2019,03,31,00,21,8.20
2019,03,31,00,22,8.20
2019,03,31,00,23,8.20
2019,03,31,00,24,8.10
2019,03,31,00,25,8.10
2019,03,31,00,26,8.10
2019,03,31,00,27,8.10
2019,03,31,00,28,8.10
2019,03,31,00,29,8.10
2019,03,31,00,30,8.00
2019,03,31,00,31,8.00
2019,03,31,00,32,8.00
2019,03,31,00,33,8.00
2019,03,31,00,34,7.90
2019,03,31,00,35,7.90
2019,03,31,00,36,7.90
2019,03,31,00,37,7.90
2019,03,31,00,38,7.90
2019,03,31,00,39,7.90
2019,03,31,00,40,7.90
2019,03,31,00,41,8.00
2019,03,31,00,42,8.00
2019,03,31,00,43,8.00
2019,03,31,00,44,8.10
2019,03,31,00,45,8.10
2019,03,31,00,46,8.10
2019,03,31,00,47,8.20
2019,03,31,00,48,8.20
2019,03,31,00,49,8.20
2019,03,31,00,50,8.30
2019,03,31,00,51,8.30
2019,03,31,00,52,8.30
2019,03,31,00,53,8.30
2019,03,31,00,54,8.30
2019,03,31,00,55,8.30
2019,03,31,00,56,8.30
2019,03,31,00,57,8.30
2019,03,31,00,58,8.30
2019,03,31,00,59,8.30
2019,03,31,01,00,8.30
2019,03,31,01,01,8.30
2019,03,31,01,02,8.30
2019,03,31,01,03,8.30
2019,03,31,01,04,8.30
2019,03,31,01,05,8.30
2019,03,31,01,06,8.30
2019,03,31,01,07,8.30
2019,03,31,01,08,8.20
2019,03,31,01,09,8.20
2019,03,31,01,10,8.20
2019,03,31,01,11,8.20
2019,03,31,01,12,8.20
2019,03,31,01,13,8.10
2019,03,31,01,14,8.10
2019,03,31,01,15,8.10
2019,03,31,01,16,8.00
2019,03,31,01,17,8.00
2019,03,31,01,18,7.90
2019,03,31,01,19,7.90
2019,03,31,01,20,7.90
2019,03,31,01,21,7.90
2019,03,31,01,22,7.90
2019,03,31,01,23,7.80
2019,03,31,01,24,7.80
2019,03,31,01,25,7.80
2019,03,31,01,26,7.70
2019,03,31,01,27,7.70
2019,03,31,01,28,7.70
2019,03,31,01,29,7.70
2019,03,31,01,30,7.70
2019,03,31,01,31,7.70
2019,03,31,01,32,7.70
2019,03,31,01,33,7.70
2019,03,31,01,34,7.70
2019,03,31,01,35,7.70
2019,03,31,01,36,7.70
2019,03,31,01,37,7.70
2019,03,31,01,38,7.60
2019,03,31,01,39,7.60
2019,03,31,01,40,7.60
2019,03,31,01,41,7.60
2019,03,31,01,42,7.60
2019,03,31,01,43,7.50
2019,03,31,01,44,7.50
2019,03,31,01,45,7.50
2019,03,31,01,46,7.40
2019,03,31,01,47,7.40
2019,03,31,01,48,7.40
2019,03,31,01,49,7.30
2019,03,31,01,50,7.30
2019,03,31,01,51,7.30
2019,03,31,01,52,7.30
2019,03,31,01,53,7.40
2019,03,31,01,54,7.40
2019,03,31,01,55,7.40
2019,03,31,01,56,7.40
2019,03,31,01,57,7.40
2019,03,31,01,58,7.40
2019,03,31,01,59,7.40
2019,03,31,02,00,7.40
2019,03,31,02,01,7.40
2019,03,31,02,02,7.40
2019,03,31,02,03,7.40
2019,03,31,02,04,7.40
2019,03,31,02,05,7.50
2019,03,31,02,06,7.50
2019,03,31,02,07,7.50
2019,03,31,02,08,7.50
2019,03,31,02,09,7.40
2019,03,31,02,10,7.40
2019,03,31,02,11,7.30
2019,03,31,02,12,7.30
2019,03,31,02,13,7.20
2019,03,31,02,14,7.20
2019,03,31,02,15,7.20
2019,03,31,02,16,7.20
2019,03,31,02,17,7.10
2019,03,31,02,18,7.10
2019,03,31,02,19,7.20
2019,03,31,02,20,7.20
2019,03,31,02,21,7.20
2019,03,31,02,22,7.20
2019,03,31,02,23,7.20
2019,03,31,02,24,7.20
2019,03,31,02,25,7.20
2019,03,31,02,26,7.20
2019,03,31,02,27,7.20
2019,03,31,02,28,7.20
2019,03,31,02,29,7.20
2019,03,31,02,30,7.20
2019,03,31,02,31,7.20
2019,03,31,02,32,7.30
2019,03,31,02,33,7.30
2019,03,31,02,34,7.40
2019,03,31,02,35,7.40
2019,03,31,02,36,7.50
2019,03,31,02,37,7.50
2019,03,31,02,38,7.50
2019,03,31,02,39,7.40
2019,03,31,02,40,7.30
2019,03,31,02,41,7.20
2019,03,31,02,42,7.20
2019,03,31,02,43,7.10
2019,03,31,02,44,7.10
2019,03,31,02,45,7.10
2019,03,31,02,46,7.00
2019,03,31,02,47,7.00
2019,03,31,02,48,7.00
2019,03,31,02,49,6.90
2019,03,31,02,50,6.90
2019,03,31,02,51,6.90
2019,03,31,02,52,6.80
2019,03,31,02,53,6.80
2019,03,31,02,54,6.80
2019,03,31,02,55,6.80
2019,03,31,02,56,6.80
2019,03,31,02,57,6.80
2019,03,31,02,58,6.70
2019,03,31,02,59,6.70
2019,03,31,03,00,6.70
2019,03,31,03,01,6.70
2019,03,31,03,02,6.70
2019,03,31,03,03,6.70
2019,03,31,03,04,6.60
2019,03,31,03,05,6.60
2019,03,31,03,06,6.60
2019,03,31,03,07,6.60
2019,03,31,03,08,6.60
2019,03,31,03,09,6.70
2019,03,31,03,10,6.70
2019,03,31,03,11,6.70
2019,03,31,03,12,6.80
2019,03,31,03,13,6.80
2019,03,31,03,14,6.80
2019,03,31,03,15,6.80
2019,03,31,03,16,6.80
2019,03,31,03,17,6.80
2019,03,31,03,18,6.80
2019,03,31,03,19,6.70
2019,03,31,03,20,6.70
2019,03,31,03,21,6.70
2019,03,31,03,22,6.70
2019,03,31,03,23,6.60
2019,03,31,03,24,6.60
2019,03,31,03,25,6.60
2019,03,31,03,26,6.50
2019,03,31,03,27,6.50
2019,03,31,03,28,6.50
2019,03,31,03,29,6.50
2019,03,31,03,30,6.50
2019,03,31,03,31,6.50
2019,03,31,03,32,6.50
2019,03,31,03,33,6.40
2019,03,31,03,34,6.40
2019,03,31,03,35,6.40
2019,03,31,03,36,6.40
2019,03,31,03,37,6.40
2019,03,31,03,38,6.30
2019,03,31,03,39,6.30
2019,03,31,03,40,6.30
2019,03,31,03,41,6.30
2019,03,31,03,42,6.30
2019,03,31,03,43,6.30
2019,03,31,03,44,6.30
2019,03,31,03,45,6.30
2019,03,31,03,46,6.30
2019,03,31,03,47,6.30
2019,03,31,03,48,6.30
2019,03,31,03,49,6.30
2019,03,31,03,50,6.40
2019,03,31,03,51,6.40
2019,03,31,03,52,6.40
2019,03,31,03,53,6.50
2019,03,31,03,54,6.50
2019,03,31,03,55,6.50
2019,03,31,03,56,6.40
2019,03,31,03,57,6.40
2019,03,31,03,58,6.40
2019,03,31,03,59,6.30
2019,03,31,04,00,6.30
2019,03,31,04,01,6.20
2019,03,31,04,02,6.20
2019,03,31,04,03,6.20
2019,03,31,04,04,6.20
2019,03,31,04,05,6.20
2019,03,31,04,06,6.10
2019,03,31,04,07,6.10
2019,03,31,04,08,6.10
2019,03,31,04,09,6.10
2019,03,31,04,10,6.10
2019,03,31,04,11,6.10
2019,03,31,04,12,6.10
2019,03,31,04,13,6.10
2019,03,31,04,14,6.00
2019,03,31,04,15,6.00
2019,03,31,04,16,6.00
2019,03,31,04,17,6.00
2019,03,31,04,18,6.00
2019,03,31,04,19,6.00
2019,03,31,04,20,6.00
2019,03,31,04,21,5.90
2019,03,31,04,22,5.90
2019,03,31,04,23,5.90
2019,03,31,04,24,5.90
2019,03,31,04,25,5.90
2019,03,31,04,26,6.00
2019,03,31,04,27,6.00
2019,03,31,04,28,6.10
2019,03,31,04,29,6.10
2019,03,31,04,30,6.10
2019,03,31,04,31,6.10
2019,03,31,04,32,6.20
2019,03,31,04,33,6.20
2019,03,31,04,34,6.20
2019,03,31,04,35,6.20
2019,03,31,04,36,6.20
2019,03,31,04,37,6.20
2019,03,31,04,38,6.20
2019,03,31,04,39,6.20
2019,03,31,04,40,6.20
2019,03,31,04,41,6.20
2019,03,31,04,42,6.20
2019,03,31,04,43,6.20
2019,03,31,04,44,6.20
2019,03,31,04,45,6.20
2019,03,31,04,46,6.20
2019,03,31,04,47,6.30
2019,03,31,04,48,6.30
2019,03,31,04,49,6.30
2019,03,31,04,50,6.30
2019,03,31,04,51,6.30
2019,03,31,04,52,6.30
2019,03,31,04,53,6.40
2019,03,31,04,54,6.40
2019,03,31,04,55,6.40
2019,03,31,04,56,6.40
2019,03,31,04,57,6.40
2019,03,31,04,58,6.40
2019,03,31,04,59,6.30
2019,03,31,05,00,6.30
2019,03,31,05,01,6.30
2019,03,31,05,02,6.20
2019,03,31,05,03,6.10
2019,03,31,05,04,6.10
2019,03,31,05,05,6.00
2019,03,31,05,06,6.00
2019,03,31,05,07,5.90
2019,03,31,05,08,5.90
2019,03,31,05,09,5.90
2019,03,31,05,10,5.90
2019,03,31,05,11,6.00
2019,03,31,05,12,6.00
2019,03,31,05,13,6.00
2019,03,31,05,14,6.00
2019,03,31,05,15,6.00
2019,03,31,05,16,6.00
2019,03,31,05,17,6.00
2019,03,31,05,18,6.00
2019,03,31,05,19,5.90
2019,03,31,05,20,5.90
2019,03,31,05,21,5.90
2019,03,31,05,22,5.90
2019,03,31,05,23,5.80
2019,03,31,05,24,5.80
2019,03,31,05,25,5.80
2019,03,31,05,26,5.70
2019,03,31,05,27,5.70
2019,03,31,05,28,5.70
2019,03,31,05,29,5.70
2019,03,31,05,30,5.60
2019,03,31,05,31,5.60
2019,03,31,05,32,5.60
2019,03,31,05,33,5.60
2019,03,31,05,34,5.60
2019,03,31,05,35,5.70
2019,03,31,05,36,5.70
2019,03,31,05,37,5.80
2019,03,31,05,38,5.80
2019,03,31,05,39,5.80
2019,03,31,05,40,5.80
2019,03,31,05,41,5.80
2019,03,31,05,42,5.80
2019,03,31,05,43,5.70
2019,03,31,05,44,5.70
2019,03,31,05,45,5.70
2019,03,31,05,46,5.70
2019,03,31,05,47,5.70
2019,03,31,05,48,5.70
2019,03,31,05,49,5.80
2019,03,31,05,50,5.90
2019,03,31,05,51,6.00
2019,03,31,05,52,6.10
2019,03,31,05,53,6.20
2019,03,31,05,54,6.30
2019,03,31,05,55,6.30
2019,03,31,05,56,6.30
2019,03,31,05,57,6.20
2019,03,31,05,58,6.20
2019,03,31,05,59,6.10
2019,03,31,06,00,6.00
2019,03,31,06,01,5.80
2019,03,31,06,02,5.70
2019,03,31,06,03,5.70
2019,03,31,06,04,5.70
2019,03,31,06,05,5.70
2019,03,31,06,06,5.80
2019,03,31,06,07,5.80
2019,03,31,06,08,5.80
2019,03,31,06,09,5.80
2019,03,31,06,10,5.80
2019,03,31,06,11,5.80
2019,03,31,06,12,5.80
2019,03,31,06,13,5.80
2019,03,31,06,14,5.70
2019,03,31,06,15,5.70
2019,03,31,06,16,5.60
2019,03,31,06,17,5.60
2019,03,31,06,18,5.40
2019,03,31,06,19,5.30
2019,03,31,06,20,5.20
2019,03,31,06,21,5.10
2019,03,31,06,22,5.10
2019,03,31,06,23,5.10
2019,03,31,06,24,5.10
2019,03,31,06,25,5.10
2019,03,31,06,26,5.20
2019,03,31,06,27,5.20
2019,03,31,06,28,5.40
2019,03,31,06,29,5.50
2019,03,31,06,30,5.60
2019,03,31,06,31,5.80
2019,03,31,06,32,5.90
2019,03,31,06,33,6.00
2019,03,31,06,34,6.20
2019,03,31,06,35,6.20
2019,03,31,06,36,6.30
2019,03,31,06,37,6.40
2019,03,31,06,38,6.40
2019,03,31,06,39,6.30
2019,03,31,06,40,6.20
2019,03,31,06,41,6.00
2019,03,31,06,42,5.90
2019,03,31,06,43,5.70
2019,03,31,06,44,5.60
2019,03,31,06,45,5.40
2019,03,31,06,46,5.30
2019,03,31,06,47,5.20
2019,03,31,06,48,5.20
2019,03,31,06,49,5.10
2019,03,31,06,50,5.00
2019,03,31,06,51,5.00
2019,03,31,06,52,4.90
2019,03,31,06,53,4.80
2019,03,31,06,54,4.80
2019,03,31,06,55,4.70
2019,03,31,06,56,4.70
2019,03,31,06,57,4.70
2019,03,31,06,58,4.60
2019,03,31,06,59,4.60
2019,03,31,07,00,4.50
2019,03,31,07,01,4.50
2019,03,31,07,02,4.40
2019,03,31,07,03,4.40
2019,03,31,07,04,4.40
2019,03,31,07,05,4.40
2019,03,31,07,06,4.30
2019,03,31,07,07,4.30
2019,03,31,07,08,4.30
2019,03,31,07,09,4.30
2019,03,31,07,10,4.20
2019,03,31,07,11,4.20
2019,03,31,07,12,4.20
2019,03,31,07,13,4.20
2019,03,31,07,14,4.20
2019,03,31,07,15,4.20
2019,03,31,07,16,4.30
2019,03,31,07,17,4.30
2019,03,31,07,18,4.40
2019,03,31,07,19,4.50
2019,03,31,07,20,4.60
2019,03,31,07,21,4.60
2019,03,31,07,22,4.70
2019,03,31,07,23,4.80
2019,03,31,07,24,4.90
2019,03,31,07,25,5.00
2019,03,31,07,26,5.10
2019,03,31,07,27,5.20
2019,03,31,07,28,5.20
2019,03,31,07,29,5.30
2019,03,31,07,30,5.40
2019,03,31,07,31,5.40
2019,03,31,07,32,5.40
2019,03,31,07,33,5.50
2019,03,31,07,34,5.50
2019,03,31,07,35,5.50
2019,03,31,07,36,5.50
2019,03,31,07,37,5.50
2019,03,31,07,38,5.50
2019,03,31,07,39,5.40
2019,03,31,07,40,5.40
2019,03,31,07,41,5.30
2019,03,31,07,42,5.30
2019,03,31,07,43,5.20
2019,03,31,07,44,5.20
2019,03,31,07,45,5.20
2019,03,31,07,46,5.20
2019,03,31,07,47,5.20
2019,03,31,07,48,5.20
2019,03,31,07,49,5.20
2019,03,31,07,50,5.20
2019,03,31,07,51,5.20
2019,03,31,07,52,5.20
2019,03,31,07,53,5.30
2019,03,31,07,54,5.30
2019,03,31,07,55,5.30
2019,03,31,07,56,5.30
2019,03,31,07,57,5.30
2019,03,31,07,58,5.30
2019,03,31,07,59,5.40
2019,03,31,08,00,5.40
2019,03,31,08,01,5.40
2019,03,31,08,02,5.50
2019,03,31,08,03,5.60
2019,03,31,08,04,5.60
2019,03,31,08,05,5.70
2019,03,31,08,06,5.70
2019,03,31,08,07,5.80
2019,03,31,08,08,5.80
2019,03,31,08,09,5.90
2019,03,31,08,10,5.90
2019,03,31,08,11,6.00
2019,03,31,08,12,6.00
2019,03,31,08,13,6.10
2019,03,31,08,14,6.10
2019,03,31,08,15,6.20
2019,03,31,08,16,6.30
2019,03,31,08,17,6.30
2019,03,31,08,18,6.30
2019,03,31,08,19,6.30
2019,03,31,08,20,6.40
2019,03,31,08,21,6.40
2019,03,31,08,22,6.40
2019,03,31,08,23,6.40
2019,03,31,08,24,6.40
2019,03,31,08,25,6.40
2019,03,31,08,26,6.50
2019,03,31,08,27,6.50
2019,03,31,08,28,6.50
2019,03,31,08,29,6.60
2019,03,31,08,30,6.60
2019,03,31,08,31,6.60
2019,03,31,08,32,6.70
2019,03,31,08,33,6.70
2019,03,31,08,34,6.70
2019,03,31,08,35,6.80
2019,03,31,08,36,6.80
2019,03,31,08,37,6.90
2019,03,31,08,38,6.90
2019,03,31,08,39,7.00
2019,03,31,08,40,7.10
2019,03,31,08,41,7.10
2019,03,31,08,42,7.20
2019,03,31,08,43,7.20
2019,03,31,08,44,7.30
2019,03,31,08,45,7.40
2019,03,31,08,46,7.50
2019,03,31,08,47,7.60
2019,03,31,08,48,7.70
2019,03,31,08,49,7.80
2019,03,31,08,50,7.90
2019,03,31,08,51,8.00
2019,03,31,08,52,8.10
2019,03,31,08,53,8.10
2019,03,31,08,54,8.20
2019,03,31,08,55,8.20
2019,03,31,08,56,8.30
2019,03,31,08,57,8.30
2019,03,31,08,58,8.30
2019,03,31,08,59,8.40
2019,03,31,09,00,8.40
2019,03,31,09,01,8.40
2019,03,31,09,02,8.50
2019,03,31,09,03,8.60
2019,03,31,09,04,8.60
2019,03,31,09,05,8.60
2019,03,31,09,06,8.70
2019,03,31,09,07,8.70
2019,03,31,09,08,8.80
2019,03,31,09,09,8.90
2019,03,31,09,10,9.00
2019,03,31,09,11,9.10
2019,03,31,09,12,9.20
2019,03,31,09,13,9.20
2019,03,31,09,14,9.20
2019,03,31,09,15,9.20
2019,03,31,09,16,9.20
2019,03,31,09,17,9.30
2019,03,31,09,18,9.30
2019,03,31,09,19,9.30
2019,03,31,09,20,9.30
2019,03,31,09,21,9.30
2019,03,31,09,22,9.40
2019,03,31,09,23,9.40
2019,03,31,09,24,9.40
2019,03,31,09,25,9.50
2019,03,31,09,26,9.50
2019,03,31,09,27,9.60
2019,03,31,09,28,9.60
2019,03,31,09,29,9.70
2019,03,31,09,30,9.70
2019,03,31,09,31,9.70
2019,03,31,09,32,9.70
2019,03,31,09,33,9.70
2019,03,31,09,34,9.70
2019,03,31,09,35,9.70
2019,03,31,09,36,9.70
2019,03,31,09,37,9.70
2019,03,31,09,38,9.70
2019,03,31,09,39,9.70
2019,03,31,09,40,9.70
2019,03,31,09,41,9.80
2019,03,31,09,42,9.80
2019,03,31,09,43,9.80
2019,03,31,09,44,9.80
2019,03,31,09,45,9.80
2019,03,31,09,46,9.80
2019,03,31,09,47,9.90
2019,03,31,09,48,9.90
2019,03,31,09,49,10.00
2019,03,31,09,50,10.10
2019,03,31,09,51,10.10
2019,03,31,09,52,10.20
2019,03,31,09,53,10.30
2019,03,31,09,54,10.40
2019,03,31,09,55,10.50
2019,03,31,09,56,10.70
2019,03,31,09,57,10.80
2019,03,31,09,58,10.90
2019,03,31,09,59,11.00
2019,03,31,10,00,11.10
2019,03,31,10,01,11.20
2019,03,31,10,02,11.20
2019,03,31,10,03,11.30
2019,03,31,10,04,11.30
2019,03,31,10,05,11.40
2019,03,31,10,06,11.40
2019,03,31,10,07,11.40
2019,03,31,10,08,11.50
2019,03,31,10,09,11.50
2019,03,31,10,10,11.50
2019,03,31,10,11,11.50
2019,03,31,10,12,11.50
2019,03,31,10,13,11.60
2019,03,31,10,14,11.60
2019,03,31,10,15,11.60
2019,03,31,10,16,11.60
2019,03,31,10,17,11.60
2019,03,31,10,18,11.60
2019,03,31,10,19,11.60
2019,03,31,10,20,11.60
2019,03,31,10,21,11.60
2019,03,31,10,22,11.60
2019,03,31,10,23,11.60
2019,03,31,10,24,11.60
2019,03,31,10,25,11.60
2019,03,31,10,26,11.60
2019,03,31,10,27,11.70
2019,03,31,10,28,11.70
2019,03,31,10,29,11.70
2019,03,31,10,30,11.80
2019,03,31,10,31,11.80
2019,03,31,10,32,11.80
2019,03,31,10,33,11.70
2019,03,31,10,34,11.70
2019,03,31,10,35,11.70
2019,03,31,10,36,11.70
2019,03,31,10,37,11.80
2019,03,31,10,38,11.80
2019,03,31,10,39,11.80
2019,03,31,10,40,11.80
2019,03,31,10,41,11.80
2019,03,31,10,42,11.90
2019,03,31,10,43,11.80
2019,03,31,10,44,11.80
2019,03,31,10,45,11.80
2019,03,31,10,46,11.80
2019,03,31,10,47,11.80
2019,03,31,10,48,11.80
2019,03,31,10,49,11.90
2019,03,31,10,50,11.90
2019,03,31,10,51,11.90
2019,03,31,10,52,11.90
2019,03,31,10,53,11.90
2019,03,31,10,54,11.90
2019,03,31,10,55,11.90
2019,03,31,10,56,11.90
2019,03,31,10,57,11.90
2019,03,31,10,58,11.90
2019,03,31,10,59,11.90
2019,03,31,11,00,12.00
2019,03,31,11,01,12.00
2019,03,31,11,02,12.00
2019,03,31,11,03,12.10
2019,03,31,11,04,12.10
2019,03,31,11,05,12.10
2019,03,31,11,06,12.10
2019,03,31,11,07,12.10
2019,03,31,11,08,12.10
2019,03,31,11,09,12.00
2019,03,31,11,10,12.00
2019,03,31,11,11,12.00
2019,03,31,11,12,12.10
2019,03,31,11,13,12.10
2019,03,31,11,14,12.10
2019,03,31,11,15,12.10
2019,03,31,11,16,12.10
2019,03,31,11,17,12.10
2019,03,31,11,18,12.00
2019,03,31,11,19,12.00
2019,03,31,11,20,12.10
2019,03,31,11,21,12.10
2019,03,31,11,22,12.20
2019,03,31,11,23,12.20
2019,03,31,11,24,12.30
2019,03,31,11,25,12.30
2019,03,31,11,26,12.40
2019,03,31,11,27,12.40
2019,03,31,11,28,12.40
2019,03,31,11,29,12.30
2019,03,31,11,30,12.30
2019,03,31,11,31,12.40
2019,03,31,11,32,12.40
2019,03,31,11,33,12.50
2019,03,31,11,34,12.60
2019,03,31,11,35,12.60
2019,03,31,11,36,12.60
2019,03,31,11,37,12.60
2019,03,31,11,38,12.70
2019,03,31,11,39,12.70
2019,03,31,11,40,12.70
2019,03,31,11,41,12.70
2019,03,31,11,42,12.70
2019,03,31,11,43,12.70
2019,03,31,11,44,12.70
2019,03,31,11,45,12.80
2019,03,31,11,46,12.80
2019,03,31,11,47,12.80
2019,03,31,11,48,12.80
2019,03,31,11,49,12.80
2019,03,31,11,50,12.70
2019,03,31,11,51,12.70
2019,03,31,11,52,12.80
2019,03,31,11,53,12.80
2019,03,31,11,54,12.80
2019,03,31,11,55,12.80
2019,03,31,11,56,12.80
2019,03,31,11,57,12.90
2019,03,31,11,58,12.90
2019,03,31,11,59,12.90
2019,03,31,12,00,12.90
2019,03,31,12,01,12.90
2019,03,31,12,02,12.90
2019,03,31,12,03,12.90
2019,03,31,12,04,13.00
2019,03,31,12,05,13.10
2019,03,31,12,06,13.10
2019,03,31,12,07,13.10
2019,03,31,12,08,13.00
2019,03,31,12,09,13.00
2019,03,31,12,10,13.10
2019,03,31,12,11,13.10
2019,03,31,12,12,13.10
2019,03,31,12,13,13.10
2019,03,31,12,14,13.10
2019,03,31,12,15,13.10
2019,03,31,12,16,13.10
2019,03,31,12,17,13.10
2019,03,31,12,18,13.10
2019,03,31,12,19,13.10
2019,03,31,12,20,13.10
2019,03,31,12,21,13.10
2019,03,31,12,22,13.20
2019,03,31,12,23,13.20
2019,03,31,12,24,13.20
2019,03,31,12,25,13.20
2019,03,31,12,26,13.30
2019,03,31,12,27,13.30
2019,03,31,12,28,13.30
2019,03,31,12,29,13.30
2019,03,31,12,30,13.30
2019,03,31,12,31,13.30
2019,03,31,12,32,13.30
2019,03,31,12,33,13.30
2019,03,31,12,34,13.30
2019,03,31,12,35,13.30
2019,03,31,12,36,13.40
2019,03,31,12,37,13.40
2019,03,31,12,38,13.40
2019,03,31,12,39,13.40
2019,03,31,12,40,13.40
2019,03,31,12,41,13.40
2019,03,31,12,42,13.50
2019,03,31,12,43,13.50
2019,03,31,12,44,13.50
2019,03,31,12,45,13.50
2019,03,31,12,46,13.50
2019,03,31,12,47,13.50
2019,03,31,12,48,13.50
2019,03,31,12,49,13.50
2019,03,31,12,50,13.50
2019,03,31,12,51,13.50
2019,03,31,12,52,13.60
2019,03,31,12,53,13.60
2019,03,31,12,54,13.60
2019,03,31,12,55,13.60
2019,03,31,12,56,13.50
2019,03,31,12,57,13.60
2019,03,31,12,58,13.60
2019,03,31,12,59,13.60
2019,03,31,13,00,13.70
2019,03,31,13,01,13.70
2019,03,31,13,02,13.80
2019,03,31,13,03,13.80
2019,03,31,13,04,13.80
2019,03,31,13,05,13.70
2019,03,31,13,06,13.70
2019,03,31,13,07,13.70
2019,03,31,13,08,13.60
2019,03,31,13,09,13.70
2019,03,31,13,10,13.70
2019,03,31,13,11,13.70
2019,03,31,13,12,13.70
2019,03,31,13,13,13.80
2019,03,31,13,14,13.80
2019,03,31,13,15,13.80
2019,03,31,13,16,13.90
2019,03,31,13,17,14.00
2019,03,31,13,18,14.00
2019,03,31,13,19,14.20
2019,03,31,13,20,14.20
2019,03,31,13,21,14.30
2019,03,31,13,22,14.20
2019,03,31,13,23,14.20
2019,03,31,13,24,14.30
2019,03,31,13,25,14.30
2019,03,31,13,26,14.40
2019,03,31,13,27,14.40
2019,03,31,13,28,14.40
2019,03,31,13,29,14.40
2019,03,31,13,30,14.40
2019,03,31,13,31,14.40
2019,03,31,13,32,14.40
2019,03,31,13,33,14.50
2019,03,31,13,34,14.40
2019,03,31,13,35,14.40
2019,03,31,13,36,14.40
2019,03,31,13,37,14.50
2019,03,31,13,38,14.50
2019,03,31,13,39,14.60
2019,03,31,13,40,14.70
2019,03,31,13,41,14.70
2019,03,31,13,42,14.70
2019,03,31,13,43,14.70
2019,03,31,13,44,14.70
2019,03,31,13,45,14.70
2019,03,31,13,46,14.70
2019,03,31,13,47,14.60
2019,03,31,13,48,14.60
2019,03,31,13,49,14.50
2019,03,31,13,50,14.50
2019,03,31,13,51,14.50
2019,03,31,13,52,14.40
2019,03,31,13,53,14.40
2019,03,31,13,54,14.40
2019,03,31,13,55,14.50
2019,03,31,13,56,14.50
2019,03,31,13,57,14.60
2019,03,31,13,58,14.60
2019,03,31,13,59,14.60
2019,03,31,14,00,14.60
2019,03,31,14,01,14.60
2019,03,31,14,02,14.70
2019,03,31,14,03,14.70
2019,03,31,14,04,14.70
2019,03,31,14,05,14.80
2019,03,31,14,06,14.90
2019,03,31,14,07,15.00
2019,03,31,14,08,15.10
2019,03,31,14,09,15.10
2019,03,31,14,10,15.20
2019,03,31,14,11,15.20
2019,03,31,14,12,15.20
2019,03,31,14,13,15.30
2019,03,31,14,14,15.30
2019,03,31,14,15,15.40
2019,03,31,14,16,15.40
2019,03,31,14,17,15.50
2019,03,31,14,18,15.50
2019,03,31,14,19,15.60
2019,03,31,14,20,15.60
2019,03,31,14,21,15.70
2019,03,31,14,22,15.70
2019,03,31,14,23,15.60
2019,03,31,14,24,15.50
2019,03,31,14,25,15.50
2019,03,31,14,26,15.50
2019,03,31,14,27,15.60
2019,03,31,14,28,15.70
2019,03,31,14,29,15.70
2019,03,31,14,30,15.80
2019,03,31,14,31,15.80
2019,03,31,14,32,15.90
2019,03,31,14,33,15.90
2019,03,31,14,34,15.80
2019,03,31,14,35,15.70
2019,03,31,14,36,15.70
2019,03,31,14,37,15.60
2019,03,31,14,38,15.60
2019,03,31,14,39,15.60
2019,03,31,14,40,15.70
2019,03,31,14,41,15.70
2019,03,31,14,42,15.80
2019,03,31,14,43,15.80
2019,03,31,14,44,15.90
2019,03,31,14,45,15.90
2019,03,31,14,46,16.00
2019,03,31,14,47,15.90
2019,03,31,14,48,15.90
2019,03,31,14,49,16.00
2019,03,31,14,50,16.00
2019,03,31,14,51,16.10
2019,03,31,14,52,16.20
2019,03,31,14,53,16.20
2019,03,31,14,54,16.20
2019,03,31,14,55,16.20
2019,03,31,14,56,16.20
2019,03,31,14,57,16.10
2019,03,31,14,58,16.10
2019,03,31,14,59,16.00
2019,03,31,15,00,16.00
2019,03,31,15,01,15.90
2019,03,31,15,02,15.90
2019,03,31,15,03,15.80
2019,03,31,15,04,15.90
2019,03,31,15,05,15.90
2019,03,31,15,06,16.00
2019,03,31,15,07,16.00
2019,03,31,15,08,16.10
2019,03,31,15,09,16.20
2019,03,31,15,10,16.20
2019,03,31,15,11,16.20
2019,03,31,15,12,16.20
2019,03,31,15,13,16.30
2019,03,31,15,14,16.30
2019,03,31,15,15,16.40
2019,03,31,15,16,16.40
2019,03,31,15,17,16.40
2019,03,31,15,18,16.40
2019,03,31,15,19,16.40
2019,03,31,15,20,16.50
2019,03,31,15,21,16.50
2019,03,31,15,22,16.60
2019,03,31,15,23,16.60
2019,03,31,15,24,16.50
2019,03,31,15,25,16.50
2019,03,31,15,26,16.40
2019,03,31,15,27,16.40
2019,03,31,15,28,16.30
2019,03,31,15,29,16.30
2019,03,31,15,30,16.30
2019,03,31,15,31,16.30
2019,03,31,15,32,16.20
2019,03,31,15,33,16.20
2019,03,31,15,34,16.20
2019,03,31,15,35,16.20
2019,03,31,15,36,16.20
2019,03,31,15,37,16.20
2019,03,31,15,38,16.20
2019,03,31,15,39,16.20
2019,03,31,15,40,16.20
2019,03,31,15,41,16.20
2019,03,31,15,42,16.20
2019,03,31,15,43,16.20
2019,03,31,15,44,16.20
2019,03,31,15,45,16.20
2019,03,31,15,46,16.20
2019,03,31,15,47,16.10
2019,03,31,15,48,16.00
2019,03,31,15,49,15.90
2019,03,31,15,50,15.90
2019,03,31,15,51,15.80
2019,03,31,15,52,15.80
2019,03,31,15,53,15.80
2019,03,31,15,54,15.90
2019,03,31,15,55,15.90
2019,03,31,15,56,16.00
2019,03,31,15,57,16.10
2019,03,31,15,58,16.20
2019,03,31,15,59,16.20
2019,03,31,16,00,16.30
2019,03,31,16,01,16.30
2019,03,31,16,02,16.30
2019,03,31,16,03,16.30
2019,03,31,16,04,16.30
2019,03,31,16,05,16.30
2019,03,31,16,06,16.30
2019,03,31,16,07,16.30
2019,03,31,16,08,16.30
2019,03,31,16,09,16.30
2019,03,31,16,10,16.30
2019,03,31,16,11,16.30
2019,03,31,16,12,16.40
2019,03,31,16,13,16.40
2019,03,31,16,14,16.50
2019,03,31,16,15,16.50
2019,03,31,16,16,16.50
2019,03,31,16,17,16.50
2019,03,31,16,18,16.50
2019,03,31,16,19,16.50
2019,03,31,16,20,16.50
2019,03,31,16,21,16.50
2019,03,31,16,22,16.60
2019,03,31,16,23,16.50
2019,03,31,16,24,16.50
2019,03,31,16,25,16.40
2019,03,31,16,26,16.40
2019,03,31,16,27,16.30
2019,03,31,16,28,16.30
2019,03,31,16,29,16.30
2019,03,31,16,30,16.30
2019,03,31,16,31,16.40
2019,03,31,16,32,16.40
2019,03,31,16,33,16.40
2019,03,31,16,34,16.40
2019,03,31,16,35,16.50
2019,03,31,16,36,16.50
2019,03,31,16,37,16.60
2019,03,31,16,38,16.60
2019,03,31,16,39,16.70
2019,03,31,16,40,16.70
2019,03,31,16,41,16.70
2019,03,31,16,42,16.80
2019,03,31,16,43,16.80
2019,03,31,16,44,16.80
2019,03,31,16,45,16.80
2019,03,31,16,46,16.80
2019,03,31,16,47,16.80
2019,03,31,16,48,16.90
2019,03,31,16,49,16.90
2019,03,31,16,50,16.90
2019,03,31,16,51,16.90
2019,03,31,16,52,16.80
2019,03,31,16,53,16.70
2019,03,31,16,54,16.70
2019,03,31,16,55,16.70
2019,03,31,16,56,16.70
2019,03,31,16,57,16.70
2019,03,31,16,58,16.70
2019,03,31,16,59,16.60
2019,03,31,17,00,16.60
2019,03,31,17,01,16.60
2019,03,31,17,02,16.70
2019,03,31,17,03,16.70
2019,03,31,17,04,16.70
2019,03,31,17,05,16.80
2019,03,31,17,06,16.80
2019,03,31,17,07,16.90
2019,03,31,17,08,16.90
2019,03,31,17,09,17.00
2019,03,31,17,10,17.00
2019,03,31,17,11,17.10
2019,03,31,17,12,17.10
2019,03,31,17,13,17.10
2019,03,31,17,14,17.10
2019,03,31,17,15,17.00
2019,03,31,17,16,17.00
2019,03,31,17,17,17.00
2019,03,31,17,18,17.10
2019,03,31,17,19,17.10
2019,03,31,17,20,17.20
2019,03,31,17,21,17.20
2019,03,31,17,22,17.20
2019,03,31,17,23,17.30
2019,03,31,17,24,17.30
2019,03,31,17,25,17.30
2019,03,31,17,26,17.30
2019,03,31,17,27,17.30
2019,03,31,17,28,17.30
2019,03,31,17,29,17.30
2019,03,31,17,30,17.30
2019,03,31,17,31,17.20
2019,03,31,17,32,17.10
2019,03,31,17,33,17.00
2019,03,31,17,34,16.90
2019,03,31,17,35,16.90
2019,03,31,17,36,16.80
2019,03,31,17,37,16.80
2019,03,31,17,38,16.80
2019,03,31,17,39,16.80
2019,03,31,17,40,16.80
2019,03,31,17,41,16.90
2019,03,31,17,42,16.90
2019,03,31,17,43,16.90
2019,03,31,17,44,16.90
2019,03,31,17,45,16.80